EW6780 Weather Reports


Display with metric or nautical units.
time (UTC)temp
F
wind
direction
speed
MPH
gust
MPH
rain 1hr
in
rain 24hr
in
rain mn
in
humidity
%
barometer
mb
20260510174505 74 288 2.0 2.0 0.00 0.08 0.00 61 1012.4
20260510174005 74 23 0.0 2.0 0.00 0.08 0.00 63 1012.4
20260510173508 73 138 0.0 2.0 0.00 0.08 0.00 63 1012.4
20260510173011 73 300 0.0 5.0 0.00 0.08 0.00 63 1012.4
20260510172506 73 106 0.0 3.0 0.00 0.08 0.00 64 1012.4
20260510172008 72 130 2.0 2.0 0.00 0.08 0.00 64 1012.4
20260510171506 72 292 0.0 2.0 0.00 0.08 0.00 66 1012.6
20260510171006 72 127 0.0 4.0 0.00 0.08 0.00 67 1012.6
20260510170506 71 240 0.0 4.0 0.00 0.08 0.00 68 1012.6
20260510170005 70 91 0.0 3.0 0.00 0.08 0.00 69 1012.7
20260510165505 70 315 0.0 4.0 0.00 0.08 0.00 68 1012.8
20260510165006 70 328 3.0 3.0 0.00 0.08 0.00 69 1012.8
20260510164505 70 210 1.0 5.0 0.00 0.08 0.00 70 1012.9
20260510164005 69 114 0.0 0.0 0.00 0.08 0.00 74 1012.9
20260510163505 68 197 0.0 1.0 0.00 0.08 0.00 74 1013.1
20260510163008 67 131 0.0 3.0 0.00 0.08 0.00 75 1013.0
20260510162505 67 85 1.0 3.0 0.00 0.08 0.00 77 1013.0
20260510162005 66 128 2.0 5.0 0.00 0.08 0.00 78 1013.2
20260510161505 66 299 0.0 1.0 0.00 0.08 0.00 79 1013.2
20260510161005 65 256 0.0 3.0 0.00 0.08 0.00 80 1013.1
20260510160505 64 136 2.0 5.0 0.00 0.08 0.00 82 1013.2
20260510160005 64 121 2.0 4.0 0.00 0.08 0.00 85 1013.1
20260510155508 63 69 0.0 0.0 0.00 0.08 0.00 84 1013.3
20260510155005 62 66 0.0 3.0 0.00 0.08 0.00 85 1013.2
20260510154505 62 37 0.0 4.0 0.00 0.08 0.00 85 1013.4
20260510154005 61 110 1.0 5.0 0.00 0.08 0.00 87 1013.5
20260510153512 61 127 0.0 3.0 0.00 0.08 0.00 87 1013.5
20260510153009 61 126 3.0 5.0 0.00 0.08 0.00 87 1013.5
20260510152506 61 135 0.0 6.0 0.00 0.08 0.00 88 1013.3
20260510152008 61 131 1.0 4.0 0.00 0.08 0.00 90 1013.3
20260510151508 60 62 0.0 5.0 0.00 0.08 0.00 89 1013.3
20260510151008 60 84 0.0 2.0 0.00 0.08 0.00 90 1013.3
20260510150511 59 60 0.0 0.0 0.00 0.08 0.00 91 1013.4
20260510150008 59 53 0.0 1.0 0.00 0.08 0.00 92 1013.5
20260510145510 59 73 0.0 1.0 0.00 0.08 0.00 92 1013.5
20260510145005 58 73 0.0 1.0 0.00 0.08 0.00 92 1013.5
20260510144507 58 71 0.0 0.0 0.00 0.08 0.00 92 1013.4
20260510144005 58 71 0.0 2.0 0.00 0.08 0.00 93 1013.4
20260510143510 57 132 0.0 2.0 0.00 0.08 0.00 93 1013.3
20260510143008 57 140 0.0 5.0 0.00 0.08 0.00 92 1013.3
20260510142511 58 94 0.0 4.0 0.00 0.08 0.00 93 1013.3
20260510142005 57 142 0.0 2.0 0.00 0.08 0.00 94 1013.3
20260510141506 57 146 0.0 0.0 0.00 0.08 0.00 94 1013.3
20260510141009 57 289 0.0 4.0 0.00 0.08 0.00 94 1013.2
20260510140506 57 133 3.0 4.0 0.00 0.08 0.00 94 1013.2
20260510140007 57 129 0.0 4.0 0.00 0.08 0.00 95 1013.2
20260510135506 57 129 0.0 4.0 0.00 0.08 0.00 95 1013.2
20260510135008 56 129 0.0 0.0 0.00 0.08 0.00 95 1013.2
20260510134506 56 129 0.0 0.0 0.00 0.08 0.00 96 1013.2
20260510134008 56 129 0.0 0.0 0.00 0.08 0.00 96 1013.3
20260510133505 56 129 0.0 0.0 0.00 0.08 0.00 96 1013.3
20260510133005 56 129 0.0 0.0 0.00 0.08 0.00 96 1013.2
20260510132511 56 129 0.0 0.0 0.00 0.08 0.00 96 1013.2
20260510132005 56 129 0.0 0.0 0.00 0.08 0.00 97 1013.1
20260510131505 55 129 0.0 0.0 0.00 0.08 0.00 97 1013.1
20260510131008 55 129 0.0 0.0 0.00 0.08 0.00 97 1013.0
20260510130505 55 129 0.0 0.0 0.00 0.08 0.00 97 1012.8
20260510130007 55 129 0.0 2.0 0.00 0.08 0.00 97 1012.8
20260510125505 55 129 2.0 3.0 0.00 0.08 0.00 97 1012.9
20260510125007 55 129 0.0 0.0 0.00 0.08 0.00 97 1012.7
20260510124505 55 129 0.0 0.0 0.00 0.08 0.00 97 1012.7
20260510124006 55 129 0.0 0.0 0.00 0.08 0.00 97 1012.6
20260510123505 55 129 0.0 3.0 0.00 0.08 0.00 97 1012.6
20260510123013 55 351 0.0 0.0 0.00 0.08 0.00 97 1012.6
20260510122510 55 349 0.0 1.0 0.00 0.08 0.00 97 1012.5
20260510122012 54 347 0.0 0.0 0.00 0.08 0.00 97 1012.4
20260510121511 54 347 0.0 0.0 0.00 0.08 0.00 97 1012.5
20260510121007 54 344 0.0 0.0 0.00 0.08 0.00 97 1012.4
20260510120508 54 344 0.0 0.0 0.00 0.08 0.00 97 1012.5
20260510120008 54 344 0.0 0.0 0.00 0.08 0.00 97 1012.4
20260510115505 54 344 0.0 0.0 0.00 0.08 0.00 97 1012.3
20260510115005 54 344 0.0 0.0 0.00 0.08 0.00 97 1012.2
20260510114506 54 344 0.0 0.0 0.00 0.08 0.00 97 1012.2
20260510114005 54 344 0.0 0.0 0.00 0.08 0.00 97 1012.3
20260510113512 54 344 0.0 0.0 0.00 0.08 0.00 97 1012.4
20260510113005 54 344 0.0 0.0 0.00 0.08 0.00 97 1012.3
20260510112508 54 344 0.0 0.0 0.00 0.08 0.00 97 1012.2
20260510112005 54 344 0.0 0.0 0.00 0.08 0.00 97 1012.0
20260510111508 53 344 0.0 0.0 0.00 0.08 0.00 97 1011.8
20260510111012 53 344 0.0 0.0 0.00 0.08 0.00 97 1011.7
20260510110508 53 344 0.0 0.0 0.00 0.08 0.00 97 1011.5
20260510110008 53 344 0.0 0.0 0.00 0.08 0.00 97 1011.6
20260510105505 53 344 0.0 0.0 0.00 0.08 0.00 97 1011.6
20260510105005 52 344 0.0 0.0 0.00 0.08 0.00 97 1011.6
20260510104514 52 344 0.0 0.0 0.00 0.08 0.00 97 1011.6
20260510104005 52 344 0.0 0.0 0.00 0.08 0.00 97 1011.6
20260510103505 52 344 0.0 0.0 0.00 0.08 0.00 97 1011.7
20260510103011 52 344 0.0 0.0 0.00 0.08 0.00 97 1011.7
20260510102505 52 344 0.0 0.0 0.00 0.08 0.00 97 1011.8
20260510102007 52 344 0.0 0.0 0.00 0.08 0.00 97 1011.9
20260510101509 52 344 0.0 0.0 0.00 0.08 0.00 97 1011.7
20260510101011 52 344 0.0 0.0 0.00 0.08 0.00 97 1011.6
20260510100514 52 344 0.0 0.0 0.00 0.08 0.00 97 1011.6
20260510100009 52 344 0.0 0.0 0.00 0.08 0.00 97 1011.6
20260510095511 52 344 0.0 0.0 0.00 0.08 0.00 97 1011.8
20260510095005 52 344 0.0 0.0 0.00 0.08 0.00 97 1011.8
20260510094508 52 344 0.0 0.0 0.00 0.08 0.00 97 1011.8
20260510094011 52 344 0.0 1.0 0.00 0.08 0.00 97 1011.8
20260510093514 52 345 0.0 2.0 0.00 0.08 0.00 97 1011.9
20260510093013 52 345 0.0 0.0 0.00 0.08 0.00 97 1012.0
20260510092506 52 343 0.0 0.0 0.00 0.08 0.00 97 1012.1
20260510092005 52 338 0.0 0.0 0.00 0.08 0.00 97 1012.2
20260510091511 52 340 0.0 0.0 0.00 0.08 0.00 97 1012.2
20260510091005 52 323 0.0 3.0 0.00 0.08 0.00 97 1012.2
20260510090505 52 347 0.0 3.0 0.00 0.08 0.00 97 1012.1
20260510090005 53 359 0.0 1.0 0.00 0.08 0.00 97 1012.2
20260510085508 53 23 0.0 0.0 0.00 0.08 0.00 97 1012.0
20260510085008 53 25 0.0 2.0 0.00 0.08 0.00 97 1012.0
20260510084505 53 26 0.0 0.0 0.00 0.08 0.00 97 1012.1
20260510084008 53 29 0.0 3.0 0.00 0.08 0.00 97 1011.9
20260510083505 53 349 0.0 0.0 0.00 0.08 0.00 97 1011.9
20260510083010 53 349 0.0 0.0 0.00 0.08 0.00 97 1011.5
20260510082505 53 349 0.0 0.0 0.00 0.08 0.00 97 1011.5
20260510082011 53 349 0.0 0.0 0.00 0.08 0.00 97 1011.4
20260510081510 53 349 0.0 0.0 0.00 0.08 0.00 97 1011.4
20260510081007 53 349 0.0 0.0 0.00 0.08 0.00 97 1011.3
20260510080505 53 349 0.0 0.0 0.00 0.08 0.00 97 1011.2
20260510080006 53 349 0.0 0.0 0.00 0.08 0.00 97 1011.2
20260510075505 53 349 0.0 0.0 0.00 0.08 0.00 97 1011.2
20260510075008 53 349 0.0 0.0 0.00 0.08 0.00 97 1011.1
20260510074506 52 349 0.0 0.0 0.00 0.08 0.00 97 1011.1
20260510074011 52 349 0.0 0.0 0.00 0.08 0.00 97 1011.1
20260510073505 52 349 0.0 0.0 0.00 0.08 0.00 97 1011.1
20260510073007 52 349 0.0 0.0 0.00 0.08 0.00 97 1011.0
20260510072508 52 349 0.0 0.0 0.00 0.08 0.00 97 1011.1
20260510072005 52 349 0.0 0.0 0.00 0.08 0.00 97 1011.1
20260510071505 52 349 0.0 0.0 0.00 0.08 0.00 97 1011.1
20260510071005 52 349 0.0 0.0 0.00 0.08 0.00 97 1011.1
20260510070508 52 349 0.0 2.0 0.00 0.08 0.00 96 1011.1
20260510070008 52 349 0.0 3.0 0.00 0.08 0.00 96 1011.1
20260510065506 52 25 0.0 0.0 0.00 0.08 0.00 96 1011.1
20260510065005 52 25 0.0 1.0 0.00 0.08 0.00 96 1011.1
20260510064509 52 25 0.0 1.0 0.00 0.08 0.00 96 1011.1
20260510064005 52 25 0.0 0.0 0.00 0.08 0.00 96 1011.0
20260510063508 52 25 0.0 0.0 0.00 0.08 0.00 96 1010.9
20260510063005 52 25 0.0 0.0 0.00 0.08 0.00 96 1010.9
20260510062510 52 25 0.0 0.0 0.00 0.08 0.00 96 1010.8
20260510062005 52 25 0.0 0.0 0.00 0.08 0.00 96 1010.8
20260510061508 52 25 0.0 0.0 0.00 0.08 0.00 96 1010.8
20260510061008 52 25 0.0 0.0 0.00 0.08 0.00 96 1010.8
20260510060505 52 25 0.0 0.0 0.00 0.08 0.00 96 1010.9
20260510060008 52 25 0.0 0.0 0.00 0.08 0.00 96 1010.9
20260510055505 52 25 0.0 0.0 0.00 0.08 0.00 96 1010.9
20260510055011 52 25 0.0 0.0 0.00 0.08 0.00 96 1010.9
20260510054512 52 25 0.0 0.0 0.00 0.08 0.00 96 1011.0
20260510054006 51 25 0.0 0.0 0.00 0.08 0.00 96 1011.0
20260510053514 51 25 0.0 0.0 0.00 0.08 0.00 96 1011.0
20260510053008 51 25 0.0 0.0 0.00 0.08 0.00 96 1011.0
20260510052505 51 25 0.0 0.0 0.00 0.08 0.00 96 1010.9
20260510052011 51 25 0.0 0.0 0.00 0.08 0.00 96 1011.0
20260510051511 50 25 0.0 0.0 0.00 0.08 0.00 96 1011.0
20260510051005 50 25 0.0 0.0 0.00 0.08 0.00 96 1011.0
20260510050508 50 25 0.0 0.0 0.00 0.08 0.00 96 1011.1
20260510050011 50 25 0.0 0.0 0.00 0.08 0.00 96 1011.2
20260510045508 50 25 0.0 0.0 0.00 0.08 0.00 96 1011.3
20260510045005 50 25 0.0 0.0 0.00 0.08 0.00 96 1011.3
20260510044505 50 25 0.0 0.0 0.00 0.08 0.00 95 1011.2
20260510044005 50 25 0.0 0.0 0.00 0.08 0.00 95 1011.2
20260510043505 50 25 0.0 0.0 0.00 0.08 0.00 95 1011.2
20260510043008 50 25 0.0 0.0 0.00 0.08 0.00 95 1011.3
20260510042505 50 25 0.0 0.0 0.00 0.08 0.00 95 1011.3
20260510042011 50 25 0.0 0.0 0.00 0.08 0.00 95 1011.2
20260510041514 50 25 0.0 0.0 0.00 0.08 0.00 95 1011.2
20260510041010 50 25 0.0 0.0 0.00 0.08 0.00 95 1011.1
20260510040505 50 25 0.0 0.0 0.00 0.08 0.00 95 1011.1
20260510040005 50 25 0.0 0.0 0.00 0.08 0.00 95 1011.0
20260510035505 50 25 0.0 0.0 0.00 0.08 0.00 95 1011.0
20260510035007 50 25 0.0 0.0 0.00 0.08 0.00 95 1010.9
20260510034509 51 25 0.0 0.0 0.00 0.08 0.00 95 1010.9
20260510034011 51 25 0.0 0.0 0.00 0.08 0.00 95 1010.8
20260510033505 51 25 0.0 0.0 0.00 0.08 0.00 95 1010.8
20260510033008 51 25 0.0 0.0 0.00 0.08 0.00 95 1010.8
20260510032514 51 25 0.0 0.0 0.00 0.08 0.00 95 1010.9
20260510032005 51 25 0.0 0.0 0.00 0.08 0.00 95 1010.9
20260510031505 51 25 0.0 0.0 0.00 0.08 0.00 95 1010.9
20260510031005 51 25 0.0 0.0 0.00 0.08 0.00 95 1010.9
20260510030513 51 25 0.0 0.0 0.00 0.08 0.00 95 1010.7
20260510030006 51 25 0.0 0.0 0.00 0.08 0.00 95 1010.8
20260510025505 52 25 0.0 0.0 0.00 0.08 0.00 95 1010.8
20260510025008 52 25 0.0 0.0 0.00 0.08 0.00 94 1010.9
20260510024511 52 25 0.0 0.0 0.00 0.08 0.00 94 1010.9
20260510024007 52 25 0.0 0.0 0.00 0.08 0.00 95 1010.9
20260510023511 52 25 0.0 0.0 0.00 0.08 0.00 95 1010.9
20260510023007 52 25 0.0 0.0 0.00 0.08 0.00 94 1010.9
20260510022505 52 25 0.0 0.0 0.00 0.08 0.00 94 1010.9
20260510022008 52 25 0.0 0.0 0.00 0.08 0.00 94 1010.9
20260510021507 52 25 0.0 0.0 0.00 0.08 0.00 94 1010.8
20260510021005 52 25 0.0 0.0 0.00 0.08 0.00 94 1010.8
20260510020508 52 25 0.0 0.0 0.00 0.08 0.00 94 1010.8
20260510020005 53 25 0.0 0.0 0.00 0.08 0.00 94 1010.8
20260510015505 53 25 0.0 0.0 0.00 0.08 0.00 94 1010.8
20260510015011 53 25 0.0 0.0 0.00 0.08 0.00 94 1010.8
20260510014508 53 25 0.0 0.0 0.00 0.08 0.00 94 1010.8
20260510014014 53 25 0.0 0.0 0.00 0.08 0.00 94 1010.7
20260510013505 53 25 0.0 0.0 0.00 0.08 0.00 94 1010.7
20260510013011 53 25 0.0 0.0 0.00 0.08 0.00 94 1010.7
20260510012511 53 25 0.0 0.0 0.00 0.08 0.00 93 1010.7
20260510012006 53 25 0.0 0.0 0.00 0.08 0.00 93 1010.7
20260510011508 54 25 0.0 0.0 0.00 0.08 0.00 93 1010.7
20260510011006 54 25 0.0 0.0 0.00 0.08 0.00 93 1010.6
20260510010505 54 25 0.0 0.0 0.00 0.08 0.00 93 1010.5
20260510010010 54 25 0.0 0.0 0.00 0.08 0.00 93 1010.4
20260510005508 54 25 0.0 0.0 0.00 0.08 0.00 92 1010.3
20260510005008 54 25 0.0 0.0 0.00 0.08 0.00 92 1010.3
20260510004508 54 25 0.0 0.0 0.00 0.08 0.00 93 1010.3
20260510004005 55 25 0.0 0.0 0.00 0.08 0.00 92 1010.3
20260510003508 55 25 0.0 0.0 0.00 0.08 0.00 92 1010.2
20260510003005 55 25 0.0 0.0 0.00 0.08 0.00 92 1010.3
20260510002505 55 25 0.0 0.0 0.00 0.08 0.00 92 1010.2
20260510002005 55 25 0.0 0.0 0.00 0.08 0.00 92 1010.2
20260510001511 55 25 0.0 0.0 0.00 0.08 0.00 92 1010.2
20260510001005 56 25 0.0 0.0 0.00 0.08 0.00 91 1010.2
20260510000511 56 25 0.0 0.0 0.00 0.08 0.00 91 1010.1
20260510000006 56 25 0.0 0.0 0.00 0.08 0.00 91 1010.1
20260509235505 56 25 0.0 0.0 0.00 0.08 0.00 91 1010.1
20260509235009 56 25 0.0 0.0 0.00 0.08 0.00 91 1010.0
20260509234507 56 25 0.0 0.0 0.00 0.08 0.00 91 1010.0
20260509234005 56 25 0.0 0.0 0.00 0.08 0.00 90 1010.0
20260509233508 56 25 0.0 0.0 0.00 0.08 0.00 90 1010.0
20260509233005 56 25 0.0 0.0 0.00 0.08 0.00 90 1009.9
20260509232507 57 25 0.0 0.0 0.00 0.08 0.00 91 1010.0
20260509232007 57 25 0.0 0.0 0.00 0.08 0.00 91 1009.9
20260509231508 57 23 0.0 0.0 0.01 0.08 0.00 92 1010.1
20260509231005 56 23 0.0 0.0 0.02 0.08 0.00 91 1010.1
20260509230505 56 23 0.0 0.0 0.03 0.08 0.00 91 1010.1
20260509230010 56 23 0.0 0.0 0.04 0.08 0.00 91 1010.1
20260509225506 56 23 0.0 0.0 0.04 0.08 0.00 91 1010.2
20260509225006 56 23 0.0 0.0 0.04 0.08 0.00 91 1010.2
20260509224510 56 23 0.0 0.0 0.05 0.08 0.00 91 1010.3
20260509224007 56 23 0.0 0.0 0.06 0.08 0.00 91 1010.2
20260509223505 56 23 0.0 0.0 0.07 0.08 0.00 90 1010.3
20260509223005 56 23 0.0 0.0 0.07 0.08 0.00 90 1010.5
20260509222505 56 23 0.0 0.0 0.07 0.08 0.00 90 1010.6
20260509222005 56 23 0.0 0.0 0.07 0.08 0.00 90 1010.7
20260509221508 57 23 0.0 0.0 0.06 0.07 0.00 89 1010.6
20260509221008 57 23 0.0 0.0 0.05 0.06 0.00 88 1010.9
20260509220508 57 23 0.0 0.0 0.04 0.05 0.00 88 1010.9
20260509220008 57 23 0.0 0.0 0.04 0.04 0.00 87 1011.0
20260509215505 57 23 0.0 0.0 0.04 0.04 0.00 86 1010.7
20260509215005 57 23 0.0 0.0 0.03 0.04 0.00 85 1010.7
20260509214511 58 23 0.0 0.0 0.02 0.03 0.00 84 1010.7
20260509214005 58 23 0.0 0.0 0.01 0.02 0.00 83 1011.1
20260509213505 58 23 0.0 0.0 0.00 0.01 0.00 82 1011.0
20260509213006 58 23 0.0 0.0 0.00 0.01 0.00 82 1010.6
20260509212511 58 23 0.0 2.0 0.00 0.01 0.00 82 1010.4
20260509212011 58 347 0.0 0.0 0.00 0.01 0.00 81 1010.3
20260509211508 58 348 0.0 0.0 0.00 0.01 0.00 81 1010.6
20260509211009 58 347 0.0 0.0 0.00 0.01 0.00 80 1010.9
20260509210508 58 347 0.0 0.0 0.00 0.01 0.00 80 1010.7
20260509210005 58 347 0.0 0.0 0.00 0.01 0.00 80 1010.5
20260509205511 58 347 0.0 0.0 0.00 0.01 0.00 81 1010.4
20260509205005 58 347 0.0 0.0 0.00 0.01 0.00 81 1010.3
20260509204505 58 347 0.0 0.0 0.00 0.01 0.00 81 1010.5
20260509204007 58 315 0.0 0.0 0.00 0.01 0.00 81 1010.7
20260509203505 58 315 0.0 0.0 0.00 0.01 0.00 81 1010.7
20260509203008 58 315 0.0 0.0 0.00 0.01 0.00 80 1010.9
20260509202511 58 315 0.0 0.0 0.00 0.01 0.00 81 1010.9
20260509202005 58 317 0.0 1.0 0.00 0.01 0.00 81 1011.1
20260509201505 58 276 0.0 0.0 0.00 0.01 0.00 80 1011.0
20260509201005 59 281 0.0 0.0 0.00 0.01 0.00 80 1011.0
20260509200511 59 292 0.0 0.0 0.00 0.01 0.00 81 1011.0
20260509200007 59 292 0.0 2.0 0.00 0.01 0.00 80 1011.0
20260509195511 59 323 0.0 4.0 0.00 0.01 0.00 80 1011.0
20260509195014 59 24 0.0 4.0 0.00 0.01 0.00 79 1011.0
20260509194508 59 309 3.0 4.0 0.00 0.01 0.00 80 1010.8
20260509194005 60 308 0.0 2.0 0.00 0.01 0.00 80 1010.8
20260509193505 60 323 0.0 2.0 0.00 0.01 0.00 81 1010.7
20260509193005 60 323 0.0 2.0 0.00 0.01 0.00 81 1010.7
20260509192506 60 314 0.0 6.0 0.00 0.01 0.00 81 1010.7
20260509192005 60 316 0.0 3.0 0.01 0.01 0.00 83 1010.6
20260509191505 60 313 0.0 2.0 0.01 0.01 0.00 84 1010.6
20260509191005 60 316 0.0 2.0 0.01 0.01 0.00 85 1010.3
20260509190505 60 317 0.0 2.0 0.01 0.01 0.00 85 1010.2
20260509190006 60 316 0.0 0.0 0.01 0.01 0.00 84 1010.4
20260509185505 60 301 0.0 0.0 0.01 0.01 0.00 84 1010.5
20260509185008 60 301 0.0 0.0 0.01 0.01 0.00 83 1010.8
20260509184506 60 301 0.0 0.0 0.01 0.01 0.00 82 1011.1
20260509184005 60 301 0.0 0.0 0.01 0.01 0.00 82 1011.3
20260509183505 60 301 0.0 0.0 0.01 0.01 0.00 81 1011.1
20260509183011 60 301 0.0 0.0 0.01 0.01 0.00 79 1011.2
20260509182505 61 301 0.0 6.0 0.01 0.01 0.00 78 1011.1
20260509182008 61 306 0.0 7.0 0.00 0.00 0.00 76 1011.0
20260509181508 62 254 4.0 10.0 0.00 0.00 0.00 75 1011.0
20260509181005 63 301 6.0 10.0 0.00 0.00 0.00 71 1011.0
20260509180505 64 288 1.0 5.0 0.00 0.00 0.00 68 1010.9
20260509180007 64 302 1.0 3.0 0.00 0.00 0.00 66 1010.6
20260509175505 65 256 5.0 5.0 0.00 0.00 0.00 64 1010.3
20260509175008 65 285 3.0 8.0 0.00 0.00 0.00 63 1010.2